Regional Weather Roundup
Issued by NWS

Home | Current Version | Previous Version | Text Only | Print | Product List | Glossary Off
Versions: 1 2 3 4 5 6 7 8 9 10 11 12 13 14 15 16 17 18 19 20 21 22 23 24 25 26 27 28 29 30 31 32 33 34 35 36 37 38 39 40 41 42 43 44 45 46 47 48 49 50

000
ASUS43 KMKX 312110
RWRWI

WISCONSIN REGIONAL WEATHER ROUNDUP
NATIONAL WEATHER SERVICE MILWAUKEE/SULLIVAN WI
300 PM CST SAT JAN 31 2015

NOTE: "FAIR" INDICATES FEW OR NO CLOUDS BELOW 12,000 FEET WITH NO
SIGNIFICANT WEATHER AND/OR OBSTRUCTIONS TO VISIBILITY.

WIZ001-002-006>008-014>016-023>028-312200-
NORTHWEST WISCONSIN

CITY           SKY/WX    TMP DP  RH WIND       PRES   REMARKS
SUPERIOR ARPT  SUNNY     23   4  44 NE8       30.29R WCI  14
ASHLAND        SUNNY     20   8  60 NE15      30.28R WCI   6
HAYWARD        PTSUNNY   24  11  57 NE12      30.20S WCI  13
SIREN          PTSUNNY   28  11  49 NE7       30.21S WCI  21
CUMBERLAND     MOSUNNY   25  14  63 NE10      30.17F WCI  15
RICE LAKE      PTSUNNY   26  16  65 N9        30.20S WCI  16
CHETEK         CLOUDY    27  17  65 N8        30.18S WCI  19
LADYSMITH      CLOUDY    26  17  68 NE12      30.19R WCI  15
EAU CLAIRE     CLOUDY    28  18  66 N5        30.18S WCI  23
MENOMONIE      CLOUDY    28  19  68 NE5       30.19S WCI  23
NEW RICHMOND   CLOUDY    28  18  67 N5        30.19S WCI  22
OSCEOLA        MOSUNNY   29  18  63 NE9       30.22S WCI  20
$$

WIZ003>005-009-010-017-018-312200-
NORTH CENTRAL WISCONSIN

CITY           SKY/WX    TMP DP  RH WIND       PRES   REMARKS
MANITOWISH WTR FLURRIES  18  11  73 N6        30.18S WCI  10
ARBOR VITAE    LGT SNOW  22  14  72 N9        30.16S WCI  11
WOODRUFF       LGT SNOW  22  14  72 N9        30.16S WCI  11
RHINELANDER    CLOUDY    22  13  68 N7        30.15R WCI  13
EAGLE RIVER    LGT SNOW  21  12  68 N12       30.15S WCI   9
LAND O LAKES   LGT SNOW  18  12  77 N8        30.18R WCI   8
PHILLIPS       CLOUDY    21  12  68 N7        30.16S WCI  12
TOMAHAWK       CLOUDY    23  15  71 N8        30.16S WCI  14
MEDFORD        CLOUDY    25  17  71 N7        30.14S WCI  17
MERRILL        CLOUDY    25  17  72 N8        30.16R WCI  16
$$

WIZ029-030-035-036-043>047-312200-
CENTRAL WISCONSIN

CITY           SKY/WX    TMP DP  RH WIND       PRES   REMARKS
WAUSAU         CLOUDY    26  17  68 N8        30.14S WCI  18
MOSINEE          N/A     27  21  80 N9        30.16R WCI  17
MARSHFIELD     CLOUDY    27  18  69 NE6       30.16R WCI  20
STEVENS POINT  CLOUDY    26  18  72 N8        30.16S WCI  17
WAUPACA        CLOUDY    31  21  65 N3        30.17S
WAUTOMA        CLOUDY    30  22  72 N5        30.17S WCI  25
WISC RAPIDS    CLOUDY    28  18  66 N9        30.18R WCI  19
CAMP DOUGLAS   CLOUDY    30  27  86 N3        30.16R
$$

WIZ011>013-019>022-031-037>040-048>050-312200-
NORTHEAST WISCONSIN

CITY           SKY/WX    TMP DP  RH WIND       PRES   REMARKS
ANTIGO         CLOUDY    23  17  78 N10       30.14R WCI  13
SHAWANO        CLOUDY    31  20  63 N3        30.17R
OCONTO         CLOUDY    28  19  67 MISG      30.18R
STURGEON BAY   CLOUDY    27  18  69 N7        30.19S WCI  19
GREEN BAY      CLOUDY    28  19  69 NW5       30.18R WCI  23
MANITOWOC      CLOUDY    29  21  72 N6        30.18R WCI  23
APPLETON       CLOUDY    27  18  69 N3        30.17R
CLINTONVILLE   CLOUDY    30  19  64 N6        30.16S WCI  24
OSHKOSH        CLOUDY    29  19  66 NE6       30.17R WCI  23
$$

WIZ032>034-041-042-053>061-312200-
SOUTHWEST WISCONSIN

CITY           SKY/WX    TMP DP  RH WIND       PRES   REMARKS
LA CROSSE      CLOUDY    33  23  66 N8        30.17S WCI  26
SPARTA         CLOUDY    31  24  75 N6        30.18R WCI  25
VIROQUA        CLOUDY    30  24  79 NE7       30.13S WCI  23
BOSCOBEL       CLOUDY    35  23  61 CALM      30.16R
PRAIRIE DU CHI CLOUDY    34  22  63 CALM      30.15S
PLATTEVILLE    CLOUDY    33  25  74 CALM      30.13F
$$

WIZ056-057-062-063-064-067-068-312200-
SOUTH CENTRAL WISCONSIN

CITY           SKY/WX    TMP DP  RH WIND       PRES   REMARKS
REEDSBURG      CLOUDY    31  22  72 NE3       30.15R
BARABOO/DELLS  CLOUDY    30  21  69 CALM      30.15R
LONE ROCK      CLOUDY    33  22  63 CALM      30.15S
MINERAL POINT  CLOUDY    34  27  75 CALM      30.13S
MADISON        CLOUDY    34  23  64 NE3       30.15R
MIDDLETON      CLOUDY    34  23  63 CALM      30.15R
WATERTOWN      CLOUDY    32  23  68 E3        30.15R
MONROE         CLOUDY    32  27  80 CALM      30.13S
JANESVILLE     CLOUDY    36  23  60 CALM      30.15R
$$

WIZ051-052-058>065-066-070>072-312200-
SOUTHEAST WISCONSIN

CITY           SKY/WX    TMP DP  RH WIND       PRES   REMARKS
MILWAUKEE      CLOUDY    34  20  56 NE8       30.16S WCI  27
WAUKESHA       CLOUDY    32  21  64 NW5       30.15S WCI  27
MILWAUKEE/TIMM CLOUDY    34  19  55 NW5       30.17R WCI  30
RACINE         CLOUDY    34  22  61 E7        30.17S WCI  28
BURLINGTON     CLOUDY    32  21  64 CALM      30.15S
KENOSHA        CLOUDY    35  22  58 CALM      30.15F
FOND DU LAC    CLOUDY    28  19  69 NE8       30.16S WCI  20
SHEBOYGAN      CLOUDY    30  19  63 N5        30.16S WCI  25
WEST BEND      CLOUDY    32  21  64 NW5       30.15S WCI  27
JUNEAU         CLOUDY    30  22  70 CALM      30.16R
$$

LSZ147-162-312200-
LAKE SUPERIOR

STATION/POSITION TIME  TEMP    WIND        PRES    WAVE
                       AIR SEA DIR/SP/G            HT/PER
                 (UTC) (F)     (DEG/KT/KT) (MB)    (FT/S)
DEVILS ISLAND    2100   17      10/ 13/ 17 1027.5R
PORT WING        2040   21      40/  8/ 12 1025.7R
SAXON HARBOR     2000   20     360/ 13/ 16 1024.7
$$

LMZ867-665-643>646-312200-
LAKE MICHIGAN

STATION/POSITION TIME  TEMP    WIND        PRES    WAVE
                       AIR SEA DIR/SP/G            HT/PER
                 (UTC) (F)     (DEG/KT/KT) (MB)    (FT/S)
NORTHPORT PIER   2022   27     340/  8/ 10 1022.0R
SISTER BAY       2013   29        CALM       N/A
KEWAUNEE LAKESHO 2000   27     350/  5/  8 1020.7R
SHEBOYGAN LAKESH 2100   29      10/  8/  9 1022.9R
PORT WASHINGTON  2040   33     280/  3/  5 1022.0S
MILWAUKEE LAKESH 2000   32      50/  7/  8   N/A
KENOSHA   LAKESH 2100   35     310/  3/  5 1021.3S
$$

TC  - TEMPERATURE IN CELSIUS
VSB - VISIBILITY IN STATUTE MILES
WCI - WIND CHILL INDEX
HX  - HEAT INDEX




USA.gov is the U.S. government's official web portal to all federal, state and local government web resources and services.